St. Charles, IL

10:48 PM CST on January 23, 2018 (GMT -0600)
Saint Charles County Smartt

Weather History for KSET - May, 2014

Change the Weather History Date:

Monday, May 12, 2014

  Actual Average (KSTL) Record (KSTL)
Temperature  
Mean Temperature 78 °F -  
Max Temperature 87 °F 74 °F 92 °F (1956)
Min Temperature 68 °F 54 °F 39 °F (1960)
Cooling Degree Days 12    
Growing Degree Days 28 (Base 50)    
Moisture  
Dew Point 67 °F    
Average Humidity 75    
Maximum Humidity 94    
Minimum Humidity 53    
Precipitation  
Precipitation 0.19 in - - ()
Sea Level Pressure  
Sea Level Pressure 29.86 in    
Wind  
Wind Speed 13 mph (SSW)    
Max Wind Speed 22 mph    
Max Gust Speed 33 mph    
Visibility 9 miles    
Events Rain , Thunderstorm    
Averages and records for this station are not official NWS values.
T = Trace of Precipitation, MM = Missing Value Source: NWS Daily Summary

Daily Weather History Graph

Daily Weather History Graph

Search for Another Location

Airport or City:

Trip Planner

Search our weather history database for the weather conditions in past years. The results will help you decide how hot, cold, wet, or windy it might be!

Date:

Astronomy

May. 12, 2014 Rise Set
Actual Time 5:51 AM CDT 8:04 PM CDT
Civil Twilight 5:22 AM CDT 8:34 PM CDT
Nautical Twilight 4:45 AM CDT 9:11 PM CDT
Astronomical Twilight 4:05 AM CDT 9:51 PM CDT
Moon 6:04 PM CDT (5/12) 4:29 AM CDT (5/12)
Length of Visible Light 15h 12m
Length of Day
14h 12m
Waxing Gibbous, 95% of the Moon is Illuminated
May 12
Waxing Gibbous
May 14
Full
May 21
Last Quarter
May 28
New
Jun 5
First Quarter

Hourly Weather History & Observations

Time (CDT) Temp. Heat Index Dew Point Humidity Pressure Visibility Wind Dir Wind Speed Gust Speed Precip Events Conditions
12:54 AM 75.0 °F - 68.0 °F 79% 29.86 in 10.0 mi SSE 11.5 mph - N/A   Partly Cloudy
1:54 AM 73.9 °F - 68.0 °F 82% 29.85 in 10.0 mi SSE 12.7 mph - N/A   Clear
2:54 AM 73.9 °F - 68.0 °F 82% 29.84 in 10.0 mi South 10.4 mph - N/A   Clear
3:54 AM 73.9 °F - 68.0 °F 82% 29.83 in 10.0 mi South 13.8 mph - N/A   Clear
4:54 AM 73.9 °F - 68.0 °F 82% 29.83 in 10.0 mi South 13.8 mph - N/A   Clear
5:54 AM 73.0 °F - 66.9 °F 81% 29.86 in 10.0 mi South 10.4 mph - N/A   Clear
6:54 AM 73.0 °F - 68.0 °F 84% 29.88 in 10.0 mi South 12.7 mph - N/A   Scattered Clouds
7:54 AM 75.0 °F - 66.9 °F 76% 29.88 in 10.0 mi South 17.3 mph - N/A   Mostly Cloudy
9:54 AM 79.0 °F - 68.0 °F 69% 29.90 in 10.0 mi South 16.1 mph 27.6 mph N/A   Clear
10:54 AM 82.0 °F 85.5 °F 69.1 °F 65% 29.90 in 10.0 mi SSW 16.1 mph 26.5 mph N/A   Scattered Clouds
11:54 AM 82.9 °F 85.8 °F 68.0 °F 60% 29.89 in 10.0 mi SSW 19.6 mph 26.5 mph N/A   Clear
12:54 PM 84.0 °F 87.8 °F 69.1 °F 61% 29.88 in 10.0 mi South 18.4 mph - N/A   Scattered Clouds
1:54 PM 86.0 °F 89.4 °F 68.0 °F 55% 29.85 in 10.0 mi South 20.7 mph 27.6 mph N/A   Partly Cloudy
2:54 PM 87.1 °F 90.6 °F 68.0 °F 53% 29.82 in 10.0 mi SSW 20.7 mph 26.5 mph N/A   Clear
3:54 PM 87.1 °F 90.6 °F 68.0 °F 53% 29.80 in 10.0 mi South 19.6 mph - N/A   Scattered Clouds
4:54 PM 86.0 °F 90.1 °F 69.1 °F 57% 29.80 in 10.0 mi South 19.6 mph 29.9 mph N/A   Clear
5:54 PM 84.0 °F 87.0 °F 68.0 °F 58% 29.81 in 10.0 mi South 21.9 mph 33.4 mph N/A   Partly Cloudy
6:54 PM 81.0 °F 83.8 °F 68.0 °F 65% 29.79 in 10.0 mi South 17.3 mph 28.8 mph N/A   Clear
7:54 PM 79.0 °F - 68.0 °F 69% 29.81 in 10.0 mi SSW 18.4 mph 28.8 mph N/A   Clear
8:54 PM 78.1 °F - 68.0 °F 71% 29.86 in 10.0 mi SSW 12.7 mph - N/A   Scattered Clouds
9:42 PM 75.0 °F - 63.0 °F 66% 29.90 in 10.0 mi West 13.8 mph 23.0 mph 0.00 in Rain Light Rain
9:54 PM 73.9 °F - 63.0 °F 68% 29.88 in 10.0 mi West 18.4 mph - 0.00 in Thunderstorm Overcast
10:14 PM 69.1 °F - 66.0 °F 90% 29.91 in 4.0 mi WNW 11.5 mph - 0.04 in Rain Light Rain
10:49 PM 68.0 °F - 66.2 °F 94% 29.90 in 1.8 mi Calm Calm - 0.13 in Rain Heavy Rain
10:50 PM 68.0 °F - 64.9 °F 90% 29.89 in 1.8 mi Calm Calm - 0.13 in Rain Heavy Rain
10:54 PM 68.0 °F - 64.9 °F 90% 29.90 in 3.0 mi Calm Calm - 0.01 in Rain Light Rain
11:22 PM 68.0 °F - 66.0 °F 93% 29.91 in 9.0 mi SSW 5.8 mph - 0.01 in Rain , Thunderstorm Light Rain
11:37 PM 69.1 °F - 66.9 °F 93% 29.89 in 5.0 mi WSW 3.5 mph - 0.05 in Rain Light Rain
11:54 PM 68.0 °F - 66.0 °F 93% 29.87 in 9.0 mi SSE 3.5 mph - 0.06 in Rain Light Rain